Location: American Medical Response
(33.3472°N, 96.5511°W)
Time: 04:03:09
(UTC+00:00)

Lacrosse 5 rocket - Pass Details

Date: 04 July 2022
Orbit: 456 x 628 km, 57.0° (Epoch: 17 August)

Event Time Altitude Azimuth Distance (km) Brightness Sun altitude
Rises 02:55:06 0° 326° (NW) 2,596 6.4 -13.9°
Reaches altitude 10° 02:57:16 10° 331° (NNW) 1,737 5.0 -14.2°
Maximum altitude 03:01:06 53° 49° (NE) 658 1.6 -14.8°
Enters shadow 03:03:05 27° 115° (ESE) 1,070 2.2 -15.1°
